Overview Statistics Trail Chart Weather Telemetry Raw packets
 

This is the latest recevied weather packets stored in our database for station/object KW4UJ. If no packets are shown the sender has not sent any weather packets the latest 10 day(s).

<< 10 11 12 13 14 15 16 >>
Time Temp. Humidity Pressure Rain* Wind** Luminosity Snow
1788565982 23.89° C 96% 1011.8 hPa 0 mm - 0 W/m² -
1788565676 23.89° C 96% 1012 hPa 0 mm - 0 W/m² -
1788565372 23.89° C 96% 1012.1 hPa 0 mm - 0 W/m² -
1788565068 23.89° C 96% 1012.4 hPa 0 mm - 1 W/m² -
1788564764 23.89° C 96% 1012.5 hPa 0 mm - 2 W/m² -
1788564460 24.44° C 96% 1012.3 hPa 0 mm - 3 W/m² -
1788564156 24.44° C 96% 1011.9 hPa 0 mm - 5 W/m² -
1788563851 24.44° C 96% 1012.2 hPa 0 mm - 8 W/m² -
1788563547 24.44° C 96% 1012.1 hPa 0 mm - 11 W/m² -
1788563246 24.44° C 96% 1012.3 hPa 0 mm - 13 W/m² -
1788562941 24.44° C 96% 1012.2 hPa 0 mm - 16 W/m² -
1788562640 24.44° C 96% 1012 hPa 0 mm - 18 W/m² -
1788562334 24.44° C 96% 1012.2 hPa 0 mm - 19 W/m² -
1788562033 25° C 96% 1012.2 hPa 0 mm - 22 W/m² -
1788561729 24.44° C 96% 1011.8 hPa 0 mm - 30 W/m² -
1788561428 24.44° C 95% 1011.6 hPa 0 mm - 36 W/m² -
1788561123 24.44° C 95% 1011.7 hPa 0 mm - 39 W/m² -
1788560819 24.44° C 95% 1012 hPa 0 mm - 39 W/m² -
1788560514 24.44° C 95% 1012.2 hPa 0 mm - 40 W/m² -
1788560213 24.44° C 96% 1012.3 hPa 0 mm - 49 W/m² -
1788559909 24.44° C 96% 1012.2 hPa 0 mm - 61 W/m² -
1788559604 24.44° C 96% 1012.5 hPa 0 mm - 68 W/m² -
1788559299 23.89° C 96% 1012.5 hPa 0 mm - 73 W/m² -
1788558999 23.89° C 96% 1012.7 hPa 0 mm - 71 W/m² -
1788558695 23.89° C 96% 1012.6 hPa 0 mm - 66 W/m² -

* Rain latest hour (hover to see other rain measurements)
** Current wind speed in m/s (hover to see current wind gust speed)